Location: ???????
(55.7027°N, 37.3832°E)
Time: 21:52:28
(UTC+00:00)

Helios 1B rocket - Pass Details

Date: 14 April 2026
Orbit: 462 x 468 km, 98.2° (Epoch: 13 May)

Event Time Altitude Azimuth Distance (km) Brightness Sun altitude
Exits shadow 19:58:00 76° 299° (WNW) 492 2.0 -21.9°
Drops below altitude 10° 20:01:21 10° 342° (NNW) 1,645 5.9 -22.1°
Sets 20:03:25 0° 344° (NNW) 2,529 7.2 -22.2°
